This demonstration page uses our WeatherBlox Daily Observations layout. Learn more.

Left ArrowRight Arrow

Hourly Observations for January 28, 2016

Temp ( °F °C ) Dew Point ( °F °C ) Humidity (%) Winds ( mph kmh ) Pressure ( in mb ) Visibility ( mi km ) Precip ( " mm )
12:54 am 00:54 Clear 38 3.3 30 -1.1 73 73 W 13 20 30.00 1016 10 16 0.00 0.00
1:54 am 01:54 Clear 39 3.9 30 -1.1 70 70 WNW 10 17 29.98 1015 10 16 0.00 0.00
2:54 am 02:54 Clear 40 4.4 30 -1.1 68 68 NW 7 11 29.98 1015 10 16 0.00 0.00
3:54 am 03:54 Clear 38 3.3 30 -1.1 73 73 WNW 8 13 29.98 1015 10 16 0.00 0.00
4:54 am 04:54 Clear 39 3.9 30 -1.1 70 70 WNW 9 15 29.97 1015 10 16 0.00 0.00
5:54 am 05:54 Clear 39 3.9 30 -1.1 70 70 NW 12 19 29.97 1015 10 16 0.00 0.00
6:54 am 06:54 Clear 38 3.3 29 -1.7 70 70 NW 13 20 29.98 1015 10 16 0.00 0.00
7:54 am 07:54 Sunny 37 2.8 29 -1.7 73 73 NNW 6 9 29.99 1016 10 16 0.00 0.00
8:54 am 08:54 Sunny 38 3.3 30 -1.1 73 73 NW 9 15 29.99 1016 10 16 0.00 0.00
9:54 am 09:54 Sunny 41 5 30 -1.1 65 65 NW 13 20 30.01 1016 10 16 0.00 0.00
10:54 am 10:54 Sunny 42 5.6 30 -1.1 62 62 NW 16 26 30.02 1017 10 16 0.00 0.00
11:54 am 11:54 Sunny 43 6.1 31 -0.6 63 63 NNW 14 22 30.03 1017 10 16 0.00 0.00
12:54 pm 12:54 Sunny 44 6.7 31 -0.6 60 60 NW 17 28 30.01 1016 10 16 0.00 0.00
1:54 pm 13:54 Sunny 44 6.7 31 -0.6 60 60 NW 13 20 30.00 1016 10 16 0.00 0.00
2:54 pm 14:54 Sunny 44 6.7 30 -1.1 58 58 NNW 14 22 29.99 1016 10 16 0.00 0.00
3:54 pm 15:54 Sunny 44 6.7 31 -0.6 60 60 NW 12 19 30.00 1016 10 16 0.00 0.00
4:54 pm 16:54 Sunny 42 5.6 31 -0.6 65 65 N 7 11 29.99 1016 10 16 0.00 0.00
5:54 pm 17:54 Clear 37 2.8 29 -1.7 73 73 NE 5 7 30.00 1016 10 16 0.00 0.00
6:54 pm 18:54 Clear 34 1.1 30 -1.1 85 85 Calm 30.00 1016 10 16 0.00 0.00
7:54 pm 19:54 Clear 30 -1.1 25 -3.9 82 82 Calm 29.99 1016 10 16 0.00 0.00
8:54 pm 20:54 Clear 31 -0.6 27 -2.8 85 85 Calm 29.98 1015 10 16 0.00 0.00
9:54 pm 21:54 Clear 30 -1.1 26 -3.3 85 85 Calm 29.96 1015 10 16 0.00 0.00
10:54 pm 22:54 Clear 29 -1.7 25 -3.9 85 85 S 3 6 29.97 1015 10 16 0.00 0.00
11:54 pm 23:54 Clear 29 -1.7 27 -2.8 92 92 SSE 7 11 29.95 1014 10 16 0.00 0.00

Powered by AerisWeather